Location: Banios
(43.0451°N, 0.2335°E)
Time: 09:30:42
(UTC+00:00)

A-11 Canister half - Pass Details

Date: 12 May 2021
Orbit: 1527 x 1681 km, 47.3° (Epoch: 22 June)

Event Time Altitude Azimuth Distance (km) Brightness Sun altitude
Rises 09:25:51 0° 235° (SW) 4,715 11.4 49.9°
Reaches altitude 10° 09:28:52 10° 234° (SW) 3,750 11.0 50.4°
Maximum altitude 09:38:22 77° 151° (SSE) 1,638 10.6 51.9°
Drops below altitude 10° 09:48:15 10° 67° (ENE) 3,883 11.6 53.5°
Sets 09:51:26 0° 66° (ENE) 4,889 11.9 54.0°
